Location: *
(41.3833°S, 177.8333°W)
Time: 08:45:25
(UTC+00:00)

Meteor 1-12 Rocket - Pass Details

Date: 01 April 2020
Orbit: 854 x 927 km, 81.2° (Epoch: 03 June)

Event Time Altitude Azimuth Distance (km) Brightness Sun altitude
Rises 17:38:37 0° 346° (NNW) 3,469 7.3 -6.3°
Reaches altitude 10° 17:41:05 10° 344° (NNW) 2,529 6.5 -5.9°
Maximum altitude 17:46:48 71° 259° (W) 922 4.3 -4.8°
Drops below altitude 10° 17:52:32 10° 175° (S) 2,526 6.7 -3.7°
Sets 17:55:00 0° 172° (S) 3,466 7.5 -3.3°
